SCP
2 1 1 1 1 0 0 0 0 0 0 0 0 0 0 0 0 0 0 0 0 1 1 1 2 2 2 2 2 2 2 2 1 1 1 1 1 1 1 1 1 1 1 1 1 1 1 1 1
1 1 1 1 0 0 0 0 0 0 0 0 0 0 0 0 0 0 0 0 1 1 1 1 2 2 2 2 2 2 2 2 1 1 1 1 1 1 1 1 1 1 1 1 1 1 1 1 1
1 1 1 1 0 0 0 0 0 0 0 0 0 0 0 0 0 0 0 1 1 1 1 1 2 2 2 2 2 2 2 2 1 1 1 1 1 1 1 1 1 1 1 1 1 1 1 1 1
1 1 1 1 0 0 0 0 0 0 0 0 0 0 0 0 0 0 1 1 1 2 2 1 1 2 2 2 2 2 2 1 1 1 1 1 1 1 1 1 1 1 1 1 1 1 1 1 1
1 1 1 1 0 0 0 1 0 0 0 0 0 0 0 0 0 1 1 1 1 2 1 1 1 1 1 2 2 2 2 1 1 2 2 2 1 1 1 1 1 1 1 1 1 1 1 1 1
1 1 1 0 0 0 0 1 0 0 0 0 0 0 0 0 1 1 1 1 2 2 1 1 1 1 1 1 1 1 1 1 1 2 2 2 1 1 1 1 1 1 1 1 1 1 1 1 1
1 1 1 1 0 0 0 0 0 1 0 0 0 0 0 1 1 1 1 1 2 1 1 1 1 1 1 1 1 1 1 1 1 1 2 2 1 1 1 1 1 1 1 1 1 1 1 1 1
1 1 0 0 0 0 0 0 0 1 1 0 0 0 1 1 1 1 1 1 1 1 1 1 1 1 1 1 1 1 1 1 1 1 1 1 1 1 1 1 1 1 1 1 1 1 1 1 1
1 1 0 0 0 0 0 1 1 1 1 1 1 1 1 1 2 2 1 1 1 1 1 1 1 1 1 1 1 1 1 1 1 1 1 1 1 1 1 1 1 1 1 1 1 1 1 1 1
1 1 1 1 1 1 1 1 1 1 1 1 1 1 1 2 2 2 2 1 1 1 1 1 1 1 1 1 1 1 0 0 0 0 1 1 1 1 1 1 1 1 1 1 1 1 1 0 0
1 1 1 1 1 1 1 1 1 1 1 1 1 2 2 2 2 2 2 1 1 1 1 1 1 1 0 0 0 0 0 0 0 0 1 1 1 1 1 1 1 1 1 1 1 0 0 0 0
1 1 1 1 1 0 1 1 1 1 1 1 2 2 2 2 1 1 1 1 1 1 1 1 1 1 1 0 0 0 0 0 0 1 1 1 1 1 1 1 1 1 0 0 0 0 0 0 0
1 1 1 1 0 0 1 1 1 1 1 2 2 3 2 2 1 1 1 1 1 1 1 1 1 1 1 0 0 0 0 0 1 1 1 1 1 1 1 1 1 1 0 0 0 0 0 0 0
0 0 0 0 0 0 1 1 1 1 1 2 2 2 2 1 1 1 1 1 1 1 1 1 1 1 1 1 0 0 0 1 1 1 1 1 1 1 1 1 1 1 0 0 0 0 0 0 0
0 0 0 0 0 0 0 0 1 1 1 2 2 2 1 1 1 1 1 1 1 1 1 1 1 1 1 1 1 1 1 1 1 1 1 1 1 1 0 0 0 1 0 0 0 0 0 0 0
0 0 0 0 0 0 0 0 0 1 1 2 2 1 1 1 1 1 1 1 1 1 1 1 1 1 1 1 1 1 1 1 1 1 1 1 1 1 0 0 0 0 0 0 0 0 0 0 0
0 0 0 0 0 0 0 0 0 1 1 1 1 1 2 2 2 2 1 1 1 1 1 1 1 2 2 2 2 1 1 1 1 1 1 1 1 1 0 0 0 0 0 0 0 0 0 0 0
0 0 0 0 0 0 0 0 1 1 1 1 1 1 2 2 3 3 2 2 1 1 2 2 3 3 3 3 2 2 1 1 1 0 0 0 0 0 0 0 0 0 0 0 0 0 0 0 0
0 0 0 0 0 0 0 1 1 1 1 1 1 1 1 1 2 2 3 2 2 2 3 4 4 4 4 3 2 1 1 1 0 0 0 0 0 0 0 0 0 0 0 0 0 0 0 0 0
0 0 0 0 0 0 0 0 1 1 1 1 1 1 1 1 1 1 2 2 2 3 4 6 5 4 4 3 2 1 1 0 0 0 0 0 0 0 0 0 0 0 0 0 0 0 0 0 0
0 0 0 0 0 0 0 0 1 1 1 1 1 1 1 1 1 1 1 1 1 2 4 6 6 5 3 2 2 1 1 0 0 0 0 0 0 0 0 0 0 0 0 0 0 0 0 1 1
0 0 0 0 0 0 0 0 1 1 1 1 1 1 1 1 1 1 1 1 1 1 3 5 4 3 2 2 1 1 0 0 0 0 0 0 0 0 0 0 0 0 0 0 0 1 1 1 1
0 0 0 0 0 0 0 0 1 1 1 1 1 1 2 2 1 1 1 1 1 1 2 2 2 2 1 1 1 1 0 0 0 0 0 0 0 0 0 0 0 1 1 1 1 1 1 1 1
0 0 0 0 0 0 0 0 0 1 1 1 1 1 2 2 2 1 1 1 1 1 1 1 1 1 1 1 1 1 1 0 1 1 1 1 1 0 0 0 0 1 1 1 1 1 1 1 1
0 0 0 0 0 0 0 0 0 0 0 0 1 1 1 2 2 1 1 1 1 1 1 2 1 1 1 1 1 1 1 1 1 1 1 1 0 0 0 1 1 1 1 1 1 1 1 1 1
0 0 0 0 0 0 0 0 0 0 0 0 0 1 1 1 1 1 1 1 1 1 2 2 2 2 1 1 1 1 1 1 1 1 1 1 1 1 1 1 1 1 1 1 1 1 1 1 1
0 0 0 0 0 0 0 0 0 0 0 0 0 1 1 1 1 1 1 1 1 1 1 2 2 2 2 2 2 2 1 1 2 2 2 1 1 1 1 1 1 1 1 1 1 1 1 1 1
0 0 0 0 0 0 0 0 0 0 0 0 1 1 1 1 1 1 1 1 1 1 1 2 2 2 3 3 3 2 2 2 2 2 2 2 1 1 1 1 1 1 1 1 1 1 1 1 1
0 0 0 0 0 0 0 0 0 0 1 1 1 1 2 1 1 1 1 1 1 1 1 2 2 2 3 3 3 3 3 3 3 3 3 2 2 2 2 1 1 1 1 1 1 1 1 1 1
0 0 0 0 0 0 0 0 0 0 1 1 1 1 2 2 1 1 1 1 1 2 2 2 2 2 3 3 4 4 4 3 4 4 3 2 2 2 2 2 2 1 1 2 2 2 1 1 1
Wind_Speed
8 5 2 1 2 4 2 2 0 1 2 2 4 5 5 3 1 1 1 3 4 5 5 8 11 11 12 13 14 15 15 15 16 16 17 17 18 18 17 17 16 16 16 16 15 14 13 13 13
6 5 1 1 4 3 3 2 2 1 3 3 5 5 5 3 2 2 1 1 4 5 5 7 11 11 12 13 14 15 15 15 15 16 16 17 17 17 17 16 16 16 16 15 14 14 13 13 13
7 4 0 2 2 1 2 1 2 3 3 2 4 4 3 2 2 1 1 3 4 4 4 7 12 12 13 13 14 14 15 15 15 15 16 16 16 16 16 16 15 16 15 15 14 13 13 12 12
4 1 1 3 1 2 3 2 3 3 3 4 4 4 3 3 1 2 4 5 5 4 4 6 11 12 13 13 14 14 14 14 14 15 15 15 16 16 16 15 15 15 15 14 13 12 11 11 11
1 2 4 3 2 2 1 2 2 2 2 3 4 4 3 3 4 6 6 6 5 4 4 5 10 12 13 13 14 14 14 14 14 14 14 14 15 15 15 15 15 14 14 13 12 11 10 10 10
2 3 4 2 3 2 1 2 3 3 3 3 4 3 2 2 4 5 5 4 4 4 3 4 9 11 12 12 13 13 13 13 13 13 14 14 14 14 14 14 14 14 13 12 11 10 9 8 9
2 3 1 0 1 1 1 2 2 3 3 3 4 4 1 1 3 5 5 5 5 4 4 3 4 7 10 11 12 12 13 13 13 13 13 13 14 13 13 13 13 13 12 11 10 9 8 7 7
2 3 1 0 1 2 1 2 2 3 2 4 4 5 3 3 5 6 6 5 5 4 4 4 3 3 4 6 10 11 12 12 12 12 12 12 12 12 12 11 11 12 11 10 8 7 7 7 6
2 3 1 3 3 3 2 2 1 3 5 2 2 3 4 9 9 7 6 4 3 3 3 3 3 3 3 4 7 8 10 10 10 9 11 9 4 5 6 8 10 11 10 9 7 6 5 5 5
3 2 4 4 4 3 2 2 3 4 3 2 4 6 10 10 9 8 6 5 4 3 2 2 3 3 3 3 3 2 3 4 4 3 4 3 3 3 5 6 9 10 9 8 6 5 4 3 2
4 4 3 2 2 3 2 1 2 6 3 5 7 10 11 10 8 7 6 5 4 3 3 2 2 3 3 2 3 2 2 2 3 4 4 4 3 3 3 2 3 4 5 3 3 3 2 2 2
3 5 3 2 1 2 3 3 3 3 4 6 10 13 12 11 9 8 7 5 4 3 3 2 3 3 3 3 2 2 2 2 2 3 4 4 3 2 2 2 2 2 2 2 2 2 2 2 1
3 3 2 1 1 2 4 3 3 1 4 9 11 11 11 10 8 6 5 4 4 4 3 3 3 3 3 3 2 3 2 2 3 3 3 4 3 3 2 2 2 2 2 2 2 2 2 1 1
2 1 1 1 2 2 4 2 3 1 7 10 10 9 9 10 9 6 6 5 5 4 3 2 3 3 3 3 2 2 2 2 3 3 3 4 3 3 3 3 2 2 2 2 2 2 2 1 0
1 3 4 1 1 1 5 3 0 3 7 9 8 8 8 8 8 8 7 6 5 4 3 3 3 3 3 3 3 2 3 3 3 3 4 4 4 4 3 3 2 2 2 2 2 2 1 1 1
3 4 2 2 1 2 4 2 2 5 8 7 7 7 6 6 7 6 6 5 4 4 4 3 3 4 3 3 3 2 2 3 3 3 3 4 4 4 3 3 2 2 2 2 2 2 1 1 1
5 1 2 3 0 2 3 3 3 6 8 7 7 6 6 5 5 5 6 5 5 4 4 4 2 3 3 3 2 2 2 2 2 3 3 3 4 5 4 3 2 3 2 2 3 2 2 1 1
2 1 2 2 2 2 1 3 2 6 8 7 6 6 6 7 7 6 5 5 4 4 4 4 3 3 2 2 2 1 1 1 2 2 3 4 4 5 4 3 3 3 3 2 2 2 2 2 1
3 2 3 4 2 2 2 2 3 5 6 5 5 6 7 7 5 5 5 5 4 4 4 4 3 3 3 2 2 1 1 1 1 2 3 4 5 5 4 3 3 3 3 3 3 3 2 1 1
3 1 3 3 1 2 1 2 2 4 6 6 7 7 8 5 4 5 5 5 6 5 5 5 4 4 3 3 2 1 1 1 1 2 2 4 5 5 5 4 4 4 3 3 3 3 2 1 2
2 4 4 3 2 3 2 4 2 2 2 2 4 5 6 8 8 7 7 7 7 7 7 6 5 4 4 3 2 2 1 1 0 1 1 3 4 5 4 5 4 4 4 4 4 4 4 2 2
4 5 5 3 2 2 1 2 6 3 2 4 5 5 5 6 8 8 8 8 8 8 7 6 5 5 4 4 4 4 3 2 2 1 2 2 3 4 4 5 5 5 4 4 5 4 4 4 3
5 1 3 2 3 1 2 1 8 2 4 6 6 6 6 6 8 9 10 9 8 8 7 6 5 4 4 5 5 4 3 3 1 1 2 2 2 3 4 4 4 4 4 5 5 4 4 4 4
3 5 6 6 5 1 2 2 7 4 5 5 4 5 5 7 7 7 7 6 6 6 6 6 5 5 4 5 5 5 5 4 3 2 2 2 2 2 3 4 4 4 4 4 5 5 5 5 4
5 6 4 4 4 4 2 2 8 6 4 4 4 4 4 5 6 7 7 7 7 8 7 7 7 6 5 4 4 5 5 4 4 3 3 3 2 2 4 4 4 4 4 4 4 4 5 5 5
3 8 8 5 5 4 2 4 7 4 3 2 1 2 2 2 3 5 7 8 7 7 7 7 7 6 5 5 5 4 4 4 3 4 3 3 3 3 3 4 4 4 4 5 4 4 5 5 5
4 2 5 7 2 0 4 5 8 2 4 3 2 2 1 1 2 3 4 5 6 6 6 7 6 5 6 6 5 4 4 4 4 4 4 3 3 3 3 4 4 4 4 4 4 4 5 4 5
4 7 6 6 5 2 4 4 5 4 3 3 1 0 1 1 2 2 3 3 4 4 4 4 5 6 5 4 5 4 4 4 4 3 4 4 4 3 3 3 3 4 4 4 4 4 4 4 5
3 4 5 4 5 6 3 7 5 5 4 3 2 1 1 1 2 3 3 3 3 3 3 3 3 4 4 4 4 3 3 3 3 3 4 4 4 4 4 4 4 4 4 4 4 4 4 5 5
3 4 6 5 3 4 4 8 3 2 3 3 2 1 0 1 1 3 3 3 2 2 3 3 3 4 4 4 3 3 3 2 3 3 3 3 3 4 4 4 4 4 4 4 4 5 5 5 6
Wind_Direction
157 144 143 177 50 44 352 322 4 42 42 30 67 81 95 86 115 169 335 115 121 134 143 148 142 138 136 134 134 135 134 134 135 138 139 139 139 139 137 136 135 134 133 130 129 128 128 127 126
150 155 188 59 65 39 323 333 33 60 130 118 67 64 71 62 56 93 91 143 133 140 142 147 146 141 139 137 136 135 135 135 136 138 139 140 140 141 140 140 138 136 134 131 130 129 129 128 128
163 194 129 64 69 163 270 310 105 89 93 77 67 51 62 56 77 118 183 134 118 129 141 152 150 146 144 142 140 138 137 137 138 139 140 141 142 144 144 143 141 139 136 133 132 131 129 130 132
162 174 47 56 4 248 213 207 130 117 55 51 84 68 51 29 66 122 118 115 113 125 136 151 150 149 148 145 143 142 141 141 141 140 140 142 143 144 146 145 144 141 138 136 134 132 130 131 135
123 77 47 22 327 309 166 151 131 101 74 66 85 83 38 16 73 100 108 115 122 125 135 150 152 151 151 148 145 144 144 145 144 144 144 144 145 147 149 148 146 142 140 138 135 133 132 133 138
70 63 59 2 336 356 61 105 103 87 96 94 94 91 34 48 91 108 107 101 105 120 132 144 152 151 149 148 148 148 148 149 149 149 148 148 149 150 151 150 148 145 142 139 137 135 135 134 136
99 84 93 241 320 345 166 98 117 125 115 119 121 103 65 84 110 112 98 85 78 91 108 119 136 142 142 148 152 151 152 152 150 148 149 151 153 154 155 153 151 149 146 143 140 136 133 134 136
140 98 30 278 191 257 183 105 118 128 117 116 119 134 179 171 123 106 91 79 74 74 84 102 104 114 129 143 152 152 152 153 151 151 151 153 154 155 156 154 156 152 149 146 144 135 130 136 138
125 73 261 223 191 220 178 115 106 93 104 95 99 134 145 130 123 112 101 87 83 84 71 87 100 108 121 134 150 151 152 154 154 155 156 150 139 141 151 156 161 157 154 151 147 136 128 134 138
115 146 236 215 186 185 183 158 148 113 108 99 82 90 118 129 136 138 140 139 135 125 103 92 103 106 112 135 125 122 127 129 127 123 135 123 118 132 142 155 162 159 160 157 151 144 133 109 111
169 209 249 259 190 158 156 149 131 136 172 186 161 142 139 142 149 155 159 157 154 139 128 108 108 106 112 117 117 107 107 108 113 122 126 124 118 121 120 123 153 152 151 134 134 124 104 96 88
187 246 233 247 142 125 151 140 124 168 202 162 149 145 149 156 164 170 170 164 145 132 146 126 116 116 119 120 122 120 123 128 132 134 134 133 133 133 128 123 120 120 125 126 118 109 103 100 104
206 265 252 211 62 124 118 126 137 148 117 120 130 142 155 163 169 169 164 161 153 159 161 145 137 138 130 127 140 138 144 148 148 142 144 146 147 150 144 133 130 133 130 133 128 121 119 121 127
230 230 24 48 81 89 110 87 87 118 122 125 138 153 165 171 172 166 165 171 172 175 174 160 148 149 135 136 146 150 154 154 149 156 162 159 157 156 151 150 152 155 150 149 149 153 147 146 173
77 52 14 34 76 94 99 38 44 155 133 138 152 161 169 175 177 179 179 179 180 180 173 172 165 148 145 149 161 158 155 155 160 164 163 162 161 161 160 159 166 170 153 147 145 145 134 161 191
48 49 359 297 91 116 111 248 235 150 145 152 164 168 174 184 188 184 176 176 174 169 170 181 177 154 155 152 151 149 150 156 166 164 162 167 167 164 160 168 178 168 152 148 155 161 150 173 195
34 51 276 304 345 116 133 239 225 167 158 166 172 176 177 185 195 190 180 176 175 175 172 176 172 162 164 156 143 141 142 159 166 163 168 172 171 166 165 178 181 165 159 163 175 162 162 175 202
224 229 264 263 289 102 158 252 223 180 174 179 180 182 187 195 203 192 183 176 173 175 173 175 166 158 147 134 118 109 125 165 167 175 180 173 172 170 167 178 180 167 164 175 174 164 161 173 186
174 190 261 269 251 134 202 250 234 193 185 186 192 196 202 207 192 173 174 171 169 178 179 179 170 164 146 143 153 159 182 180 190 198 190 180 178 175 175 184 177 173 179 185 174 156 160 165 145
168 217 279 306 25 134 191 294 252 201 200 197 196 200 204 196 181 180 175 172 178 191 194 185 182 173 169 172 168 164 154 174 192 202 193 184 181 181 185 183 187 182 174 175 175 162 161 179 158
217 197 219 226 8 40 67 337 309 277 210 206 208 204 199 197 195 191 188 189 189 195 199 196 189 182 178 167 138 115 84 58 85 175 199 192 186 189 192 191 188 183 180 190 192 183 179 185 185
250 223 192 182 109 309 89 280 290 274 274 236 229 211 210 208 194 191 193 193 200 202 196 188 183 180 175 166 163 166 176 195 214 199 195 191 184 189 192 195 193 191 189 194 200 192 184 176 193
218 180 150 146 132 39 18 154 287 320 281 260 237 220 213 202 192 193 195 195 196 193 189 183 177 182 177 173 178 178 190 201 196 180 181 194 199 198 196 194 195 196 196 198 201 194 192 192 196
146 68 57 51 69 354 263 168 279 258 243 261 237 224 216 200 193 193 186 177 182 184 183 177 174 187 181 178 182 187 193 193 189 204 204 208 209 211 208 199 196 198 200 201 204 203 201 203 205
84 87 42 9 17 255 268 183 252 263 253 242 239 223 212 198 190 185 175 173 181 186 186 181 180 188 184 181 191 197 199 196 199 208 210 210 213 218 217 209 201 201 206 205 200 202 208 205 207
167 138 154 187 210 267 319 233 256 280 294 282 243 182 147 170 188 189 184 180 184 185 183 182 186 191 184 189 201 201 199 199 209 209 207 211 216 222 215 205 206 208 207 210 203 210 216 212 216
133 154 154 129 133 122 281 288 301 333 2 15 42 73 108 172 176 173 167 168 172 181 192 186 184 189 191 197 197 198 202 205 212 213 212 217 222 223 212 205 208 211 210 210 205 217 222 213 219
124 139 99 117 142 221 284 273 257 292 302 332 358 275 240 182 136 134 143 156 167 179 186 186 190 194 191 191 200 207 207 213 217 214 222 226 228 223 210 209 208 211 209 208 209 222 225 219 226
83 81 96 106 144 156 222 263 230 215 225 225 256 270 226 194 149 138 139 141 152 159 166 190 198 189 185 191 198 210 211 213 213 221 229 227 230 220 216 211 206 210 211 206 208 222 222 222 230
141 147 140 145 201 170 177 259 280 211 210 196 242 320 333 109 128 136 143 138 136 153 170 189 191 193 195 190 191 206 201 195 211 228 237 231 230 227 220 211 212 220 222 212 212 227 227 225 232